K4VI Weather Reports


Display with metric or nautical units.
time (UTC)temp
F
wind
direction
speed
MPH
gust
MPH
rain 1hr
in
rain 24hr
in
rain mn
in
humidity
%
barometer
mb
20260906233003 79 162 4.0 10.0 0.00 0.00 0.00 16 1038.1
20260906232720 79 143 5.0 11.0 0.00 0.00 0.00 16 1038.1
20260906232003 80 141 4.0 11.0 0.00 0.00 0.00 15 1038.0
20260906231721 81 153 3.0 11.0 0.00 0.00 0.00 14 1038.0
20260906231003 81 131 4.0 10.0 0.00 0.00 0.00 13 1038.0
20260906230717 81 152 4.0 10.0 0.00 0.00 0.00 13 1038.0
20260906230005 81 233 3.0 9.0 0.00 0.00 0.00 13 1038.1
20260906225503 80 218 3.0 7.0 0.00 0.00 0.00 12 1038.1
20260906225003 81 174 4.0 9.0 0.00 0.00 0.00 12 1038.2
20260906224503 81 141 5.0 11.0 0.00 0.00 0.00 12 1038.2
20260906224003 80 135 4.0 11.0 0.00 0.00 0.00 12 1038.1
20260906223503 80 196 3.0 9.0 0.00 0.00 0.00 13 1038.1
20260906223003 80 265 4.0 12.0 0.00 0.00 0.00 14 1038.1
20260906222503 80 259 4.0 12.0 0.00 0.00 0.00 13 1038.2
20260906222003 81 138 4.0 12.0 0.00 0.00 0.00 13 1038.3
20260906221717 81 128 5.0 12.0 0.00 0.00 0.00 13 1038.3
20260906221220 80 141 4.0 12.0 0.00 0.00 0.00 13 1038.2
20260906220503 80 277 4.0 9.0 0.00 0.00 0.00 13 1038.4
20260906220221 80 270 3.0 9.0 0.00 0.00 0.00 14 1038.4
20260906215503 79 135 4.0 9.0 0.00 0.00 0.00 14 1038.6
20260906215003 79 143 4.0 10.0 0.00 0.00 0.00 13 1038.7
20260906214503 79 210 4.0 10.0 0.00 0.00 0.00 14 1038.9
20260906214003 79 199 5.0 22.0 0.00 0.00 0.00 13 1038.9
20260906213503 78 217 6.0 22.0 0.00 0.00 0.00 13 1038.9
20260906213003 78 241 5.0 9.0 0.00 0.00 0.00 11 1038.9
20260906212504 78 240 5.0 12.0 0.00 0.00 0.00 14 1039.0
20260906212003 79 261 5.0 12.0 0.00 0.00 0.00 14 1039.1
20260906211503 79 253 4.0 10.0 0.00 0.00 0.00 14 1039.1
20260906211003 79 241 4.0 9.0 0.00 0.00 0.00 13 1039.3
20260906210503 79 255 3.0 8.0 0.00 0.00 0.00 14 1039.3
20260906210004 79 228 4.0 8.0 0.00 0.00 0.00 12 1039.4
20260906205503 78 227 4.0 9.0 0.00 0.00 0.00 12 1039.5
20260906205003 78 217 4.0 10.0 0.00 0.00 0.00 14 1039.5
20260906204720 79 164 5.0 12.0 0.00 0.00 0.00 14 1039.5
20260906204003 79 145 6.0 16.0 0.00 0.00 0.00 14 1039.6
20260906203503 78 166 5.0 16.0 0.00 0.00 0.00 16 1039.7
20260906203003 78 180 5.0 11.0 0.00 0.00 0.00 16 1039.7
20260906202503 78 183 5.0 12.0 0.00 0.00 0.00 20 1039.8
20260906202003 78 178 4.0 12.0 0.00 0.00 0.00 20 1039.8
20260906201503 78 227 4.0 11.0 0.00 0.00 0.00 22 1039.9
20260906201003 78 169 4.0 13.0 0.00 0.00 0.00 21 1039.8
20260906200503 77 154 4.0 13.0 0.00 0.00 0.00 23 1039.8
20260906200003 76 249 5.0 15.0 0.00 0.00 0.00 24 1039.9
20260906195503 77 259 5.0 15.0 0.00 0.00 0.00 23 1039.8
20260906195003 77 258 4.0 10.0 0.00 0.00 0.00 22 1039.9
20260906194503 77 261 3.0 9.0 0.00 0.00 0.00 22 1039.9
20260906194003 77 275 4.0 11.0 0.00 0.00 0.00 23 1039.9
20260906193503 77 281 4.0 11.0 0.00 0.00 0.00 22 1040.0
20260906193003 77 280 3.0 10.0 0.00 0.00 0.00 22 1039.9
20260906192503 76 300 3.0 10.0 0.00 0.00 0.00 22 1040.1
20260906192003 76 280 3.0 8.0 0.00 0.00 0.00 22 1040.1
20260906191503 76 282 4.0 11.0 0.00 0.00 0.00 22 1040.2
20260906191003 76 291 4.0 11.0 0.00 0.00 0.00 21 1040.2
20260906190504 76 120 4.0 8.0 0.00 0.00 0.00 23 1040.3
20260906190003 76 102 3.0 10.0 0.00 0.00 0.00 22 1040.3
20260906185503 76 121 3.0 10.0 0.00 0.00 0.00 22 1040.4
20260906185003 76 149 3.0 10.0 0.00 0.00 0.00 22 1040.5
20260906184503 75 175 3.0 10.0 0.00 0.00 0.00 23 1040.6
20260906184003 75 273 4.0 9.0 0.00 0.00 0.00 23 1040.6
20260906183503 74 273 5.0 11.0 0.00 0.00 0.00 24 1040.7
20260906183003 74 273 3.0 11.0 0.00 0.00 0.00 23 1040.7
20260906182503 74 307 3.0 9.0 0.00 0.00 0.00 26 1040.8
20260906182003 73 283 4.0 9.0 0.00 0.00 0.00 26 1040.9
20260906181503 74 270 3.0 9.0 0.00 0.00 0.00 25 1041.0
20260906181003 74 338 2.0 5.0 0.00 0.00 0.00 26 1041.1
20260906180503 73 308 2.0 9.0 0.00 0.00 0.00 26 1041.1
20260906180004 73 190 3.0 9.0 0.00 0.00 0.00 27 1041.3
20260906175504 73 138 4.0 9.0 0.00 0.00 0.00 27 1041.4
20260906175219 73 124 4.0 10.0 0.00 0.00 0.00 26 1041.5
20260906174503 73 181 3.0 10.0 0.00 0.00 0.00 26 1041.5
20260906174003 73 169 3.0 12.0 0.00 0.00 0.00 29 1041.5
20260906173503 72 206 2.0 12.0 0.00 0.00 0.00 31 1041.4
20260906173003 71 260 3.0 9.0 0.00 0.00 0.00 30 1041.7
20260906172503 72 223 4.0 11.0 0.00 0.00 0.00 30 1041.8
20260906172217 72 202 4.0 11.0 0.00 0.00 0.00 30 1041.8
20260906171503 72 156 3.0 9.0 0.00 0.00 0.00 32 1041.9
20260906171003 71 210 3.0 9.0 0.00 0.00 0.00 33 1042.0
20260906170503 71 258 3.0 10.0 0.00 0.00 0.00 32 1042.1
20260906170003 70 252 3.0 10.0 0.00 0.00 0.00 33 1042.1
20260906165503 70 268 3.0 9.0 0.00 0.00 0.00 34 1042.1
20260906165220 69 274 4.0 7.0 0.00 0.00 0.00 35 1042.1
20260906164503 69 267 4.0 8.0 0.00 0.00 0.00 35 1042.1
20260906164003 69 284 4.0 8.0 0.00 0.00 0.00 36 1042.0
20260906163718 69 287 4.0 8.0 0.00 0.00 0.00 36 1042.0
20260906163003 69 285 4.0 8.0 0.00 0.00 0.00 36 1042.0
20260906162503 69 252 3.0 8.0 0.00 0.00 0.00 37 1042.1
20260906162003 68 237 3.0 10.0 0.00 0.00 0.00 37 1042.0
20260906161721 68 251 4.0 10.0 0.00 0.00 0.00 38 1042.0
20260906161218 68 275 4.0 9.0 0.00 0.00 0.00 39 1041.9
20260906160503 68 289 4.0 9.0 0.00 0.00 0.00 38 1041.9
20260906160003 68 274 4.0 9.0 0.00 0.00 0.00 39 1041.9
20260906155503 68 262 3.0 7.0 0.00 0.00 0.00 39 1041.9
20260906155220 67 268 4.0 8.0 0.00 0.00 0.00 40 1041.9
20260906154503 67 300 5.0 11.0 0.00 0.00 0.00 40 1041.9
20260906154003 67 307 4.0 11.0 0.00 0.00 0.00 39 1041.8
20260906153503 66 299 3.0 9.0 0.00 0.00 0.00 41 1041.8
20260906153003 66 304 3.0 9.0 0.00 0.00 0.00 41 1041.8
20260906152503 65 308 4.0 10.0 0.00 0.00 0.00 41 1041.8
20260906152003 66 303 4.0 10.0 0.00 0.00 0.00 41 1041.8
20260906151504 65 297 5.0 11.0 0.00 0.00 0.00 41 1041.6
20260906151003 65 292 5.0 12.0 0.00 0.00 0.00 41 1041.6
20260906150717 65 279 4.0 12.0 0.00 0.00 0.00 42 1041.7
20260906150004 65 271 4.0 11.0 0.00 0.00 0.00 43 1041.5
20260906145503 65 270 4.0 14.0 0.00 0.00 0.00 42 1041.5
20260906145003 64 286 5.0 14.0 0.00 0.00 0.00 42 1041.4
20260906144503 64 293 5.0 11.0 0.00 0.00 0.00 42 1041.5
20260906144003 64 284 5.0 11.0 0.00 0.00 0.00 42 1041.4
20260906143720 64 281 5.0 11.0 0.00 0.00 0.00 42 1041.4
20260906143003 64 269 5.0 14.0 0.00 0.00 0.00 42 1041.4
20260906142503 64 256 4.0 14.0 0.00 0.00 0.00 42 1041.4
20260906142003 64 265 5.0 11.0 0.00 0.00 0.00 42 1041.4
20260906141503 64 292 5.0 12.0 0.00 0.00 0.00 43 1041.3
20260906141003 63 298 5.0 12.0 0.00 0.00 0.00 44 1041.3
20260906140503 63 264 4.0 9.0 0.00 0.00 0.00 44 1041.3
20260906140003 63 265 5.0 14.0 0.00 0.00 0.00 44 1041.2
20260906135503 64 277 6.0 14.0 0.00 0.00 0.00 43 1041.2
20260906135003 64 275 5.0 13.0 0.00 0.00 0.00 42 1041.2
20260906134503 64 283 5.0 11.0 0.00 0.00 0.00 43 1041.2
20260906134003 63 280 5.0 11.0 0.00 0.00 0.00 43 1041.1
20260906133503 63 285 5.0 11.0 0.00 0.00 0.00 44 1041.0
20260906133003 62 286 5.0 11.0 0.00 0.00 0.00 45 1041.0
20260906132504 62 291 5.0 10.0 0.00 0.00 0.00 45 1041.0
20260906132219 62 293 4.0 10.0 0.00 0.00 0.00 46 1041.0
20260906131503 62 283 5.0 11.0 0.00 0.00 0.00 45 1040.9
20260906131003 61 289 5.0 11.0 0.00 0.00 0.00 47 1040.8
20260906130718 60 284 5.0 10.0 0.00 0.00 0.00 47 1040.7
20260906130221 60 277 4.0 9.0 0.00 0.00 0.00 48 1040.7
20260906125503 59 299 4.0 10.0 0.00 0.00 0.00 49 1040.8
20260906125003 59 309 5.0 10.0 0.00 0.00 0.00 50 1040.8
20260906124720 58 305 4.0 10.0 0.00 0.00 0.00 50 1040.8
20260906124003 57 253 2.0 4.0 0.00 0.00 0.00 52 1040.8
20260906123503 58 232 2.0 5.0 0.00 0.00 0.00 53 1040.9
20260906123003 58 185 1.0 5.0 0.00 0.00 0.00 54 1040.9
20260906122504 58 141 1.0 4.0 0.00 0.00 0.00 51 1040.8
20260906122003 58 163 1.0 4.0 0.00 0.00 0.00 51 1040.8
20260906121503 59 295 1.0 4.0 0.00 0.00 0.00 50 1040.8
20260906121003 60 293 2.0 4.0 0.00 0.00 0.00 49 1040.8
20260906120503 60 284 2.0 4.0 0.00 0.00 0.00 48 1040.8
20260906120004 60 299 2.0 5.0 0.00 0.00 0.00 48 1040.8
20260906115503 60 318 1.0 5.0 0.00 0.00 0.00 49 1040.8
20260906115003 60 315 3.0 9.0 0.00 0.00 0.00 49 1040.7
20260906114503 61 315 5.0 10.0 0.00 0.00 0.00 48 1040.7
20260906114003 61 316 5.0 11.0 0.00 0.00 0.00 48 1040.7
20260906113503 61 315 5.0 11.0 0.00 0.00 0.00 47 1040.7
20260906113220 61 313 5.0 10.0 0.00 0.00 0.00 47 1040.7
20260906112503 61 309 4.0 13.0 0.00 0.00 0.00 47 1040.7
20260906112003 62 308 6.0 13.0 0.00 0.00 0.00 48 1040.8
20260906111718 61 308 6.0 13.0 0.00 0.00 0.00 48 1040.7
20260906111003 61 308 6.0 11.0 0.00 0.00 0.00 49 1040.7
20260906110503 62 314 7.0 12.0 0.00 0.00 0.00 49 1040.7
20260906110003 62 313 6.0 12.0 0.00 0.00 0.00 49 1040.7
20260906105503 62 309 6.0 12.0 0.00 0.00 0.00 49 1040.7
20260906105003 62 310 6.0 14.0 0.00 0.00 0.00 49 1040.6
20260906104503 62 309 5.0 14.0 0.00 0.00 0.00 49 1040.6
20260906104003 62 309 5.0 12.0 0.00 0.00 0.00 49 1040.6
20260906103503 62 309 5.0 12.0 0.00 0.00 0.00 49 1040.6
20260906103003 62 310 6.0 11.0 0.00 0.00 0.00 48 1040.5
20260906102503 62 312 7.0 12.0 0.00 0.00 0.00 48 1040.5
20260906102003 62 312 6.0 12.0 0.00 0.00 0.00 48 1040.5
20260906101503 62 312 5.0 10.0 0.00 0.00 0.00 48 1040.5
20260906101003 62 306 4.0 10.0 0.00 0.00 0.00 48 1040.6
20260906100720 62 304 4.0 10.0 0.00 0.00 0.00 48 1040.6
20260906100003 63 308 5.0 11.0 0.00 0.00 0.00 47 1040.5
20260906095503 62 309 5.0 11.0 0.00 0.00 0.00 47 1040.7
20260906095003 62 312 6.0 13.0 0.00 0.00 0.00 47 1040.6
20260906094717 62 313 6.0 13.0 0.00 0.00 0.00 48 1040.7
20260906094003 61 312 5.0 13.0 0.00 0.00 0.00 50 1040.7
20260906093503 60 313 4.0 10.0 0.00 0.00 0.00 51 1040.7
20260906093221 60 312 3.0 10.0 0.00 0.00 0.00 52 1040.7
20260906092503 59 302 1.0 3.0 0.00 0.00 0.00 52 1040.7
20260906092003 59 299 0.0 2.0 0.00 0.00 0.00 53 1040.7
20260906091503 59 298 1.0 3.0 0.00 0.00 0.00 54 1040.7
20260906091218 59 307 1.0 3.0 0.00 0.00 0.00 53 1040.7
20260906090503 59 323 1.0 3.0 0.00 0.00 0.00 53 1040.7
20260906090003 59 319 1.0 3.0 0.00 0.00 0.00 52 1040.7
20260906085503 60 318 2.0 5.0 0.00 0.00 0.00 51 1040.6
20260906085003 60 316 3.0 5.0 0.00 0.00 0.00 52 1040.6
20260906084503 59 320 3.0 5.0 0.00 0.00 0.00 53 1040.6
20260906084003 59 328 2.0 5.0 0.00 0.00 0.00 53 1040.5
20260906083503 59 331 1.0 3.0 0.00 0.00 0.00 54 1040.6
20260906083216 59 331 1.0 3.0 0.00 0.00 0.00 53 1040.7
20260906082719 59 330 1.0 3.0 0.00 0.00 0.00 53 1040.7
20260906082003 59 336 1.0 3.0 0.00 0.00 0.00 54 1040.7
20260906081503 59 337 2.0 4.0 0.00 0.00 0.00 55 1040.7
20260906081003 59 336 1.0 4.0 0.00 0.00 0.00 55 1040.7
20260906080503 59 345 0.0 3.0 0.00 0.00 0.00 55 1040.7
20260906080004 59 348 0.0 3.0 0.00 0.00 0.00 55 1040.7
20260906075503 59 350 1.0 3.0 0.00 0.00 0.00 55 1040.7
20260906075003 59 350 0.0 3.0 0.00 0.00 0.00 55 1040.7
20260906074503 59 350 0.0 1.0 0.00 0.00 0.00 56 1040.7
20260906074003 59 349 0.0 2.0 0.00 0.00 0.00 56 1040.7
20260906073503 59 4 1.0 3.0 0.00 0.00 0.00 55 1040.7
20260906073217 59 12 1.0 3.0 0.00 0.00 0.00 55 1040.7
20260906072503 59 45 0.0 1.0 0.00 0.00 0.00 55 1040.7
20260906072003 59 44 0.0 1.0 0.00 0.00 0.00 54 1040.7
20260906071503 59 44 0.0 1.0 0.00 0.00 0.00 54 1040.7
20260906071219 59 44 0.0 1.0 0.00 0.00 0.00 54 1040.8
20260906070503 59 44 0.0 1.0 0.00 0.00 0.00 54 1040.8
20260906070003 59 44 0.0 1.0 0.00 0.00 0.00 54 1040.7
20260906065503 60 45 0.0 1.0 0.00 0.00 0.00 54 1040.8
20260906065003 60 45 0.0 1.0 0.00 0.00 0.00 54 1040.8
20260906064719 60 45 0.0 1.0 0.00 0.00 0.00 53 1040.8
20260906064003 60 46 0.0 1.0 0.00 0.00 0.00 53 1040.8
20260906063503 60 46 0.0 2.0 0.00 0.00 0.00 53 1040.8
20260906063003 60 46 0.0 2.0 0.00 0.00 0.00 53 1040.7
20260906062503 60 46 0.0 1.0 0.00 0.00 0.00 53 1040.7
20260906062003 60 46 1.0 3.0 0.00 0.00 0.00 53 1040.7
20260906061717 60 46 1.0 3.0 0.00 0.00 0.00 53 1040.7
20260906061003 60 46 0.0 1.0 0.00 0.00 0.00 53 1040.7
20260906060504 61 46 0.0 1.0 0.00 0.00 0.00 52 1040.6
20260906060004 61 46 0.0 1.0 0.00 0.00 0.00 52 1040.7
20260906055718 61 47 0.0 2.0 0.00 0.00 0.00 51 1040.7
20260906055221 61 56 1.0 2.0 0.00 0.00 0.00 51 1040.7
20260906054503 62 77 1.0 3.0 0.00 0.00 0.00 50 1040.7
20260906054003 62 83 1.0 3.0 0.00 0.00 0.00 50 1040.7
20260906053503 62 86 0.0 2.0 0.00 0.00 0.00 49 1040.7
20260906053003 63 86 0.0 1.0 0.00 0.00 0.00 49 1040.7
20260906052503 63 86 0.0 1.0 0.00 0.00 0.00 49 1040.7
20260906052219 63 86 0.0 1.0 0.00 0.00 0.00 49 1040.7
20260906051503 63 86 0.0 1.0 0.00 0.00 0.00 49 1040.7
20260906051003 63 86 0.0 3.0 0.00 0.00 0.00 48 1040.7
20260906050503 63 86 0.0 3.0 0.00 0.00 0.00 48 1040.7
20260906050004 64 86 0.0 2.0 0.00 0.00 0.00 48 1040.7
20260906045503 64 85 1.0 2.0 0.00 0.00 0.00 49 1040.8
20260906045003 63 85 1.0 2.0 0.00 0.00 0.00 49 1040.8
20260906044720 63 85 1.0 2.0 0.00 0.00 0.00 49 1040.8
20260906044003 63 85 0.0 2.0 0.00 0.00 0.00 48 1040.9
20260906043503 63 85 0.0 2.0 0.00 0.00 0.00 48 1040.9
20260906043219 63 84 0.0 2.0 0.00 0.00 0.00 48 1040.8
20260906042503 63 83 1.0 2.0 0.00 0.00 0.00 48 1040.9
20260906042003 63 83 1.0 2.0 0.00 0.00 0.00 48 1040.9
20260906041718 63 83 0.0 2.0 0.00 0.00 0.00 48 1040.9
20260906041221 63 83 0.0 1.0 0.00 0.00 0.00 48 1040.9
20260906040503 63 83 1.0 3.0 0.00 0.00 0.00 48 1040.8
20260906040004 63 83 1.0 3.0 0.00 0.00 0.00 48 1041.0
20260906035503 63 83 0.0 2.0 0.00 0.00 0.00 48 1041.0
20260906035003 63 83 0.0 1.0 0.00 0.00 0.00 47 1041.0
20260906034503 63 83 0.0 1.0 0.00 0.00 0.00 47 1041.1
20260906034219 63 83 0.0 1.0 0.00 0.00 0.00 47 1041.0
20260906033503 64 83 0.0 1.0 0.00 0.00 0.00 46 1040.9
20260906033003 64 83 0.0 1.0 0.00 0.00 0.00 46 1040.9
20260906032503 64 83 0.0 1.0 0.00 0.00 0.00 45 1040.8
20260906032221 64 83 0.0 1.0 0.00 0.00 0.00 45 1040.8
20260906031503 65 83 0.0 1.0 0.00 0.00 0.00 45 1040.7
20260906031003 65 83 0.0 1.0 0.00 0.00 0.00 44 1040.7
20260906030503 65 70 0.0 1.0 0.00 0.00 0.00 44 1040.7
20260906030003 66 48 0.0 1.0 0.00 0.00 0.00 44 1040.7
20260906025503 66 42 0.0 2.0 0.00 0.00 0.00 43 1040.6
20260906025003 66 43 1.0 2.0 0.00 0.00 0.00 43 1040.5
20260906024503 66 44 1.0 2.0 0.00 0.00 0.00 43 1040.5
20260906024003 66 46 0.0 2.0 0.00 0.00 0.00 43 1040.4
20260906023503 66 45 1.0 3.0 0.00 0.00 0.00 43 1040.3
20260906023220 66 39 1.0 3.0 0.00 0.00 0.00 43 1040.3
20260906022503 67 40 1.0 4.0 0.00 0.00 0.00 43 1040.3
20260906022003 67 47 1.0 4.0 0.00 0.00 0.00 42 1040.2
20260906021503 67 48 1.0 4.0 0.00 0.00 0.00 42 1040.0
20260906021003 67 49 1.0 4.0 0.00 0.00 0.00 42 1040.0
20260906020503 67 48 1.0 3.0 0.00 0.00 0.00 42 1039.9
20260906020004 68 46 1.0 3.0 0.00 0.00 0.00 41 1039.9
20260906015721 68 44 1.0 4.0 0.00 0.00 0.00 41 1039.9
20260906015004 68 42 2.0 4.0 0.00 0.00 0.00 40 1039.8
20260906014503 68 43 2.0 5.0 0.00 0.00 0.00 40 1039.7
20260906014003 69 69 2.0 5.0 0.00 0.00 0.00 39 1039.8
20260906013503 69 87 2.0 7.0 0.00 0.00 0.00 39 1039.8
20260906013003 70 82 1.0 7.0 0.00 0.00 0.00 38 1039.7
20260906012503 70 82 2.0 7.0 0.00 0.00 0.00 38 1039.8
20260906012003 70 83 3.0 7.0 0.00 0.00 0.00 37 1039.7
20260906011503 71 89 3.0 8.0 0.00 0.00 0.00 36 1039.7
20260906011003 71 87 3.0 8.0 0.00 0.00 0.00 35 1039.7
20260906010503 72 77 3.0 8.0 0.00 0.00 0.00 35 1039.7
20260906010003 72 69 3.0 8.0 0.00 0.00 0.00 34 1039.7
20260906005717 72 63 2.0 7.0 0.00 0.00 0.00 33 1039.7
20260906005003 72 58 2.0 6.0 0.00 0.00 0.00 31 1039.7
20260906004503 72 59 1.0 3.0 0.00 0.00 0.00 31 1039.7
20260906004221 72 58 2.0 5.0 0.00 0.00 0.00 31 1039.7
20260906003503 72 58 3.0 7.0 0.00 0.00 0.00 32 1039.6
20260906003003 72 91 5.0 10.0 0.00 0.00 0.00 33 1039.6
20260906002503 73 112 6.0 11.0 0.00 0.00 0.00 33 1039.6
20260906002003 73 114 7.0 14.0 0.00 0.00 0.00 34 1039.6
20260906001503 74 113 6.0 14.0 0.00 0.00 0.00 33 1039.5
20260906001003 74 113 5.0 11.0 0.00 0.00 0.00 30 1039.4
20260906000503 75 110 6.0 12.0 0.00 0.00 0.00 30 1039.3
20260906000003 75 109 6.0 12.0 0.00 0.00 0.00 30 1039.3
20260905235717 75 111 5.0 11.0 0.00 0.00 0.00 30 1039.3
20260905235003 75 114 7.0 13.0 0.00 0.00 0.00 30 1039.1
20260905234503 76 113 7.0 14.0 0.00 0.00 0.00 30 1039.1
20260905234003 75 105 7.0 14.0 0.00 0.00 0.00 30 1039.1
20260905233503 75 105 7.0 13.0 0.00 0.00 0.00 30 1039.2